Regional Weather Roundup
Issued by NWS

Home | Current Version | Previous Version | Text Only | Print | Product List | Glossary On
Versions: 1 2 3 4 5 6 7 8 9 10 11 12 13 14 15 16 17 18 19 20 21 22 23 24 25 26 27 28 29 30 31 32 33 34 35 36 37 38 39 40 41 42 43 44 45 46 47 48 49 50
000
ASUS44 KJAN 131810
RWRMS

MISSISSIPPI HOURLY WEATHER ROUNDUP
NATIONAL WEATHER SERVICE JACKSON MS
1200 PM CST SAT FEB 13 2016

NOTE: "FAIR: INDICATES FEW OR NO CLOUDS BELOW 12,000 FEET WITH NO
SIGNIFICANT WEATHER AND/OR OBSTRUCTIONS TO VISIBILITY.

MSZ001>002-007>008-010>013-018>021-025>028-034>036-131900-
NORTHWEST MISSISSIPPI

CITY           SKY/WX    TMP DP  RH WIND       PRES   REMARKS
CLEVELAND      FAIR      40  15  37 NE12      30.54F WCI  32
GREENWOOD      SUNNY     44  10  25 NE14      30.52F
6HR MIN TEMP:  31; 6HR MAX TEMP:  44;

GREENVILLE     SUNNY     42   9  25 NE9       30.54F
6HR MIN TEMP:  34; 6HR MAX TEMP:  43;

OLIVE BRANCH   MOSUNNY   32  10  40 N8        30.55F WCI  25
OXFORD         FAIR      37   5  25 NE5G17    30.53F WCI  34
TUNICA         CLEAR     36  12  38 N10       30.57F WCI  28
$$

MSZ003>006-009-014>017-022>024-029>033-037>039-131900-
NORTHEAST MISSISSIPPI

CITY           SKY/WX    TMP DP  RH WIND       PRES   REMARKS
COLUMBUS AFB   SUNNY     41  10  28 N10       30.50F
6HR MIN TEMP:  30; 6HR MAX TEMP:  41;

CORINTH        FAIR      34   9  35 VRB7G16   30.54F WCI  28
GOLDN TRIANGLE SUNNY     43  14  31 N12       30.50F
STARKVILLE     FAIR      41  14  33 NE8       30.50F
TUPELO         SUNNY     39  10  30 NW10      30.52F WCI  32
6HR MIN TEMP:  27; 6HR MAX TEMP:  39;

$$

MSZ040-058-131900-
CENTRAL MISSISSIPPI

CITY           SKY/WX    TMP DP  RH WIND       PRES   REMARKS
JACKSON INTL   SUNNY     48  14  25 N7        30.48F
6HR MIN TEMP:  37; 6HR MAX TEMP:  48;

JACKSON HAWKNS SUNNY     47  13  25 VRB6      30.48F
6HR MIN TEMP:  37; 6HR MAX TEMP:  47;

MERIDIAN KEY   SUNNY     47  10  22 N8        30.47F
6HR MIN TEMP:  35; 6HR MAX TEMP:  48;

MERIDIAN NAS   SUNNY     46   9  22 NE9       30.48F
6HR MIN TEMP:  33; 6HR MAX TEMP:  46;

VICKSBURG      SUNNY     48  23  37 N7        30.50F
6HR MIN TEMP:  40; 6HR MAX TEMP:  49;

$$

MSZ059>079-131900-
SOUTH MISSISSIPPI

CITY           SKY/WX    TMP DP  RH WIND       PRES   REMARKS
BROOKHAVEN     FAIR      63  39  42 N7        30.47S
HATTIESBURG    SUNNY     53  26  35 VRB5      30.45F
6HR MIN TEMP:  41; 6HR MAX TEMP:  53;

MCCOMB         SUNNY     54  30  40 N8        30.43F
6HR MIN TEMP:  42; 6HR MAX TEMP:  54;

NATCHEZ        SUNNY     52  28  40 E9        30.46F
6HR MIN TEMP:  43; 6HR MAX TEMP:  52;

PINE BELT      SUNNY     52  19  28 N10       30.46F
6HR MIN TEMP:  39; 6HR MAX TEMP:  52;

$$

MSZ080>082-131900-
COASTAL MISSISSIPPI

CITY           SKY/WX    TMP DP  RH WIND       PRES   REMARKS
BILOXI         SUNNY     56  29  34 NE12      30.41F
6HR MIN TEMP:  45; 6HR MAX TEMP:  56;

PASCAGOULA     SUNNY     57  29  34 N13       30.42F
6HR MIN TEMP:  43; 6HR MAX TEMP:  58;

GULFPORT       SUNNY     57  28  33 N13G18    30.42F
6HR MIN TEMP:  45; 6HR MAX TEMP:  57;

$$



USA.gov is the U.S. government's official web portal to all federal, state and local government web resources and services.